This demonstration page uses our WeatherBlox Daily Observations layout. Learn more.

Left ArrowRight Arrow

34.16533, -84.80231

Hourly Observations for July 1, 2016

Temp ( °F °C ) Dew Point ( °F °C ) Humidity (%) Winds ( mph kmh ) Pressure ( in mb ) Visibility ( mi km ) Precip ( " mm )
12:53 am 00:53 Clear 75 23.9 69 20.6 82 82 Calm 29.95 1014 10 16 0.00 0.00
1:53 am 01:53 Clear 72 22.2 69 20.6 91 91 Calm 29.95 1014 10 16 0.00 0.00
2:53 am 02:53 Clear 72 22.2 69 20.6 91 91 Calm 29.94 1014 10 16 0.00 0.00
3:53 am 03:53 Clear 73 22.8 69 20.6 87 87 Calm 29.93 1014 10 16 0.00 0.00
4:53 am 04:53 Mostly Clear 71 21.7 68 20 90 90 Calm 29.94 1014 10 16 0.00 0.00
5:53 am 05:53 Clear 71 21.7 69 20.6 94 94 Calm 29.95 1014 10 16 0.00 0.00
6:53 am 06:53 Sunny 70 21.1 69 20.6 97 97 Calm 29.96 1015 8 13 0.00 0.00
7:53 am 07:53 Partly Cloudy 73 22.8 69 20.6 87 87 Calm 29.98 1015 10 16 0.00 0.00
8:53 am 08:53 Sunny 74 23.3 69 20.6 85 85 VRB 5 7 30.00 1016 10 16 0.00 0.00
9:53 am 09:53 Sunny 77 25 66 18.9 69 69 VRB 3 6 30.01 1016 10 16 0.00 0.00
10:53 am 10:53 Sunny 82 27.8 62 16.7 51 51 VRB 3 6 30.00 1016 10 16 0.00 0.00
11:53 am 11:53 Sunny 87 30.6 63 17.2 45 45 Calm 30.00 1016 10 16 0.00 0.00
12:53 pm 12:53 Sunny 89 31.7 51 10.6 27 27 N 6 9 29.98 1015 10 16 0.00 0.00
1:53 pm 13:53 Sunny 90 32.2 52 11.1 27 27 VRB 3 6 29.98 1015 10 16 0.00 0.00
2:53 pm 14:53 Sunny 92 33.3 59 15 33 33 VRB 6 9 29.96 1014 10 16 0.00 0.00
3:53 pm 15:53 Sunny 93 33.9 56 13.3 29 29 VRB 5 7 29.93 1014 10 16 0.00 0.00
4:53 pm 16:53 Sunny 94 34.4 55 12.8 27 27 Calm 29.92 1013 10 16 0.00 0.00
5:53 pm 17:53 Sunny 94 34.4 57 13.9 29 29 Calm 29.92 1013 10 16 0.00 0.00
6:53 pm 18:53 Sunny 92 33.3 58 14.4 32 32 N 6 9 29.93 1013 10 16 0.00 0.00
7:53 pm 19:53 Sunny 88 31.1 60 15.6 39 39 Calm 29.93 1014 10 16 0.00 0.00
8:53 pm 20:53 Sunny 77 25 68 20 74 74 Calm 29.94 1014 10 16 0.00 0.00
9:53 pm 21:53 Partly Cloudy 76 24.4 67 19.4 74 74 Calm 29.96 1014 10 16 0.00 0.00
10:53 pm 22:53 Clear 73 22.8 66 18.9 79 79 Calm 29.97 1015 10 16 0.00 0.00
11:53 pm 23:53 Clear 73 22.8 65 18.3 76 76 Calm 29.98 1015 10 16 0.00 0.00

Powered by AerisWeather